Погода в Никольском

Россия / Новгородская область     58°46′17″N   33°25′57″E
темп.,
°C
ветер,
м/с
пор.,
м/с
влажн.,
%
обл.,
%
осадки,
мм/ч
давл.,
гПа
погр.,
м
21 апреля, ср
ср2100:00+4вюв3990100 0.1 1016668
03:00+3всв3793100 0.5 1013540
06:00+2св3897100 1.3 1010346
09:00+2св2699100 3.4 1006299
12:00+2всв1399100 1.6 1004200
15:00+2юз2399100 3.1 1003179
18:00+2юз3798100 0.6 1003557
21:00+3юз3998100 0.7 1004620
22 апреля, чт
чт2200:00+3ю2896100 0.0 1004297
03:00+1ююв269699 0.1 1005129
06:00+2ююв3897100 1.1 1005257
09:00+7ююз478559 1.2 1006579
12:00+11юз476480 0.0 10071162
15:00+13юз475065 0.3 10072080
18:00+13ю255518 0.0 1007234
21:00+8юв4127622 0.0 1007287
23 апреля, пт
пт2300:00+7ююв2688100 0.1 1007161
03:00+6ююв2796100 0.3 1007262
06:00+5ю3790100 2.3 1007361
09:00+7ю4774100 2.3 10081137
12:00+7ю4872100 0.6 10091226
15:00+8ююз5860100 0.9 10091738
18:00+9ююз365599 0.2 10091358
21:00+4юз127392 0.3 101014
24 апреля, сб
сб2400:00+3ю2277100 0.0 101033
03:00+3ю1179100 0.0 100910
06:00+3ююз1182100 0.0 100828
09:00+4з2276100 0.0 1007438
12:00+6з3362100 0.0 10061072
15:00+6зсз3453100 0.1 10061330
18:00+6зсз3556100 0.1 10051326
21:00+3зсз2374100 0.1 100567
25 апреля, вс
вс2500:00+1з2383100 0.0 100463
03:000зюз228999 0.0 100352
06:00−1зюз268823 0.0 1003182
09:00+4зюз3465100 0.0 1002955
12:00+5зюз4555100 0.3 10021445
15:00+7зюз4548100 0.5 10031894
18:00+6юз456284 0.6 10031143
21:00+1юз228425 0.7 100426